| time (UTC) | temp F | wind direction | speed MPH | gust MPH | rain 1hr in | rain 24hr in | rain mn in | humidity % | barometer mb |
| 20260903213001 | 84 | 297 | 3.0 | 10.0 | 0.00 | 0.00 | 0.00 | 82 | 1013.0 |
| 20260903211500 | 86 | 242 | 3.0 | 9.0 | 0.00 | 0.00 | 0.00 | 77 | 1012.9 |
| 20260903204500 | 87 | 295 | 2.0 | 6.0 | 0.00 | 0.00 | 0.00 | 73 | 1013.2 |
| 20260903203001 | 87 | 284 | 2.0 | 9.0 | 0.00 | 0.00 | 0.00 | 70 | 1013.3 |
| 20260903201500 | 86 | 310 | 2.0 | 8.0 | 0.00 | 0.00 | 0.00 | 69 | 1013.6 |
| 20260903194500 | 86 | 308 | 3.0 | 8.0 | 0.00 | 0.00 | 0.00 | 72 | 1013.8 |
| 20260903191500 | 85 | 340 | 3.0 | 8.0 | 0.00 | 0.00 | 0.00 | 76 | 1014.1 |
| 20260903190003 | 85 | 285 | 2.0 | 7.0 | 0.00 | 0.00 | 0.00 | 77 | 1014.2 |
| 20260903184500 | 83 | 305 | 5.0 | 9.0 | 0.00 | 0.00 | 0.00 | 79 | 1014.4 |
| 20260903183000 | 83 | 295 | 5.0 | 12.0 | 0.00 | 0.00 | 0.00 | 78 | 1014.7 |
| 20260903181500 | 83 | 301 | 3.0 | 7.0 | 0.00 | 0.00 | 0.00 | 80 | 1014.7 |
| 20260903174500 | 83 | 344 | 1.0 | 4.0 | 0.00 | 0.00 | 0.00 | 79 | 1014.7 |
| 20260903173000 | 81 | 286 | 2.0 | 8.0 | 0.00 | 0.00 | 0.00 | 81 | 1015.0 |
| 20260903171500 | 80 | 312 | 3.0 | 8.0 | 0.00 | 0.00 | 0.00 | 83 | 1015.2 |
| 20260903170004 | 80 | 300 | 1.0 | 3.0 | 0.00 | 0.00 | 0.00 | 87 | 1015.7 |
| 20260903164501 | 78 | 354 | 3.0 | 8.0 | 0.00 | 0.00 | 0.00 | 88 | 1015.6 |
| 20260903163000 | 78 | 330 | 2.0 | 9.0 | 0.00 | 0.00 | 0.00 | 88 | 1016.0 |
| 20260903161500 | 78 | 302 | 5.0 | 12.0 | 0.00 | 0.00 | 0.00 | 87 | 1016.4 |
| 20260903160004 | 78 | 309 | 3.0 | 8.0 | 0.00 | 0.00 | 0.00 | 88 | 1016.4 |
| 20260903154500 | 77 | 327 | 2.0 | 8.0 | 0.00 | 0.00 | 0.00 | 92 | 1016.8 |
| 20260903153000 | 76 | 285 | 2.0 | 6.0 | 0.00 | 0.00 | 0.00 | 91 | 1017.2 |
| 20260903151500 | 76 | 311 | 3.0 | 9.0 | 0.00 | 0.00 | 0.00 | 91 | 1016.9 |
| 20260903150005 | 76 | 252 | 2.0 | 7.0 | 0.00 | 0.00 | 0.00 | 92 | 1017.0 |
| 20260903144500 | 76 | 319 | 3.0 | 6.0 | 0.00 | 0.00 | 0.00 | 92 | 1016.7 |
| 20260903143000 | 75 | 290 | 4.0 | 8.0 | 0.00 | 0.00 | 0.00 | 92 | 1016.4 |
| 20260903140004 | 74 | 302 | 3.0 | 9.0 | 0.00 | 0.00 | 0.00 | 95 | 1016.0 |
| 20260903134500 | 73 | 300 | 6.0 | 12.0 | 0.00 | 0.00 | 0.00 | 95 | 1016.1 |
| 20260903133000 | 73 | 290 | 6.0 | 13.0 | 0.00 | 0.00 | 0.00 | 96 | 1016.1 |
| 20260903131500 | 73 | 292 | 6.0 | 11.0 | 0.00 | 0.00 | 0.00 | 97 | 1016.1 |
| 20260903130002 | 72 | 276 | 4.0 | 8.0 | 0.00 | 0.00 | 0.00 | 98 | 1015.8 |
| 20260903123001 | 71 | 278 | 3.0 | 6.0 | 0.00 | 0.00 | 0.00 | 98 | 1016.1 |
| 20260903121500 | 70 | 311 | 3.0 | 6.0 | 0.00 | 0.00 | 0.00 | 98 | 1016.1 |
| 20260903120003 | 70 | 278 | 4.0 | 9.0 | 0.00 | 0.00 | 0.00 | 98 | 1016.2 |
| 20260903114500 | 70 | 304 | 4.0 | 8.0 | 0.00 | 0.00 | 0.00 | 98 | 1016.9 |
| 20260903113000 | 70 | 289 | 3.0 | 9.0 | 0.00 | 0.00 | 0.00 | 98 | 1017.0 |
| 20260903111500 | 70 | 269 | 3.0 | 7.0 | 0.00 | 0.00 | 0.00 | 98 | 1017.7 |
| 20260903110004 | 69 | 294 | 1.0 | 4.0 | 0.00 | 0.00 | 0.00 | 98 | 1017.9 |
| 20260903104501 | 70 | 349 | 0.0 | 1.0 | 0.00 | 0.00 | 0.00 | 98 | 1017.8 |
| 20260903103001 | 69 | 41 | 1.0 | 4.0 | 0.00 | 0.00 | 0.00 | 98 | 1017.6 |
| 20260903101501 | 69 | 287 | 2.0 | 5.0 | 0.00 | 0.00 | 0.00 | 98 | 1017.4 |
| 20260903094501 | 69 | 147 | 1.0 | 4.0 | 0.00 | 0.00 | 0.00 | 98 | 1017.7 |
| 20260903093001 | 69 | 100 | 1.0 | 3.0 | 0.00 | 0.00 | 0.00 | 98 | 1018.0 |
| 20260903091501 | 69 | 153 | 2.0 | 4.0 | 0.00 | 0.00 | 0.00 | 98 | 1018.0 |
| 20260903090004 | 69 | 122 | 4.0 | 7.0 | 0.00 | 0.00 | 0.00 | 98 | 1017.7 |
| 20260903083000 | 70 | 86 | 6.0 | 12.0 | 0.00 | 0.00 | 0.00 | 98 | 1018.5 |
| 20260903081500 | 70 | 105 | 1.0 | 3.0 | 0.00 | 0.00 | 0.00 | 98 | 1017.8 |
| 20260903074500 | 70 | 188 | 2.0 | 6.0 | 0.00 | 0.00 | 0.00 | 98 | 1017.1 |
| 20260903073001 | 70 | 165 | 3.0 | 6.0 | 0.00 | 0.00 | 0.00 | 98 | 1017.1 |
| 20260903071503 | 70 | 148 | 3.0 | 5.0 | 0.00 | 0.00 | 0.00 | 98 | 1016.9 |
| 20260903070004 | 71 | 146 | 2.0 | 5.0 | 0.00 | 0.00 | 0.00 | 98 | 1016.9 |
| 20260903064501 | 71 | 145 | 2.0 | 4.0 | 0.00 | 0.00 | 0.00 | 98 | 1017.1 |
| 20260903061502 | 71 | 241 | 0.0 | 2.0 | 0.00 | 0.00 | 0.00 | 98 | 1017.8 |
| 20260903060004 | 71 | 330 | 3.0 | 11.0 | 0.00 | 0.00 | 0.00 | 98 | 1017.4 |
| 20260903054500 | 71 | 75 | 7.0 | 13.0 | 0.00 | 0.00 | 0.00 | 98 | 1019.3 |
| 20260903053002 | 71 | 203 | 2.0 | 5.0 | 0.00 | 0.00 | 0.00 | 98 | 1017.4 |
| 20260903051501 | 71 | 140 | 2.0 | 5.0 | 0.00 | 0.00 | 0.00 | 98 | 1017.7 |
| 20260903050004 | 71 | 188 | 1.0 | 5.0 | 0.00 | 0.00 | 0.00 | 98 | 1017.2 |
| 20260903044501 | 71 | 225 | 2.0 | 5.0 | 0.00 | 0.00 | 0.00 | 98 | 1017.4 |
| 20260903041501 | 72 | 197 | 1.0 | 5.0 | 0.00 | 0.00 | 0.00 | 98 | 1017.6 |
| 20260903040004 | 72 | 246 | 1.0 | 4.0 | 0.00 | 0.00 | 0.00 | 97 | 1017.9 |
| 20260903034500 | 72 | 206 | 1.0 | 3.0 | 0.00 | 0.00 | 0.00 | 98 | 1018.2 |
| 20260903033001 | 72 | 242 | 1.0 | 5.0 | 0.00 | 0.00 | 0.00 | 97 | 1018.4 |
| 20260903031500 | 72 | 269 | 1.0 | 5.0 | 0.00 | 0.00 | 0.00 | 97 | 1018.0 |
| 20260903030004 | 72 | 224 | 2.0 | 5.0 | 0.00 | 0.00 | 0.00 | 97 | 1018.4 |
| 20260903024501 | 72 | 229 | 1.0 | 3.0 | 0.00 | 0.00 | 0.00 | 97 | 1018.2 |
| 20260903021501 | 72 | 275 | 2.0 | 6.0 | 0.00 | 0.00 | 0.00 | 97 | 1017.8 |
| 20260903020004 | 72 | 226 | 1.0 | 5.0 | 0.00 | 0.00 | 0.00 | 97 | 1017.7 |
| 20260903014501 | 72 | 229 | 1.0 | 4.0 | 0.00 | 0.00 | 0.00 | 97 | 1018.0 |
| 20260903013000 | 72 | 161 | 2.0 | 5.0 | 0.00 | 0.00 | 0.00 | 97 | 1017.9 |
| 20260903010004 | 72 | 175 | 2.0 | 7.0 | 0.00 | 0.00 | 0.00 | 97 | 1017.8 |
| 20260903004501 | 72 | 197 | 2.0 | 7.0 | 0.00 | 0.00 | 0.00 | 97 | 1017.9 |
| 20260903003001 | 72 | 158 | 2.0 | 4.0 | 0.00 | 0.00 | 0.00 | 96 | 1017.9 |
| 20260903001502 | 72 | 202 | 2.0 | 5.0 | 0.00 | 0.00 | 0.00 | 96 | 1017.9 |
| 20260903000005 | 73 | 151 | 2.0 | 6.0 | 0.00 | 0.00 | 0.00 | 96 | 1017.7 |
| 20260902231501 | 73 | 153 | 1.0 | 3.0 | 0.00 | 0.00 | 0.00 | 95 | 1017.8 |
| 20260902230004 | 73 | 246 | 1.0 | 5.0 | 0.00 | 0.00 | 0.00 | 95 | 1017.8 |
| 20260902224500 | 74 | 212 | 2.0 | 5.0 | 0.00 | 0.00 | 0.00 | 95 | 1017.6 |
| 20260902221503 | 74 | 169 | 1.0 | 2.0 | 0.00 | 0.00 | 0.00 | 95 | 1018.2 |
| 20260902220004 | 74 | 160 | 1.0 | 3.0 | 0.00 | 0.00 | 0.00 | 95 | 1018.3 |
| 20260902214501 | 74 | 219 | 2.0 | 5.0 | 0.00 | 0.00 | 0.00 | 96 | 1018.1 |